Grant Co International Airport Moses Lake US
ICAO: KMWH
IATA: MWH
Category: Medium
Scheduled Services: No

Elevation: 1189 ft
TransAlt. 18000 ft.

Airport Communications:
APP/DEP:126.4
ATIS:119.05
CTAF:118.25
GND:121.9
SEATTLE RDO:122.4
TWR:118.25
UNICOM:122.95

KMWH Zoom In..

Runways:

(A) RW 04 length 10000 ft width 100 ft
---- / hdg 36

(B) RW 09 length 3500 ft width 90 ft
---- / hdg 90

(C) RW 14L length 13503 ft width 200 ft
---- / hdg 144

(D) RW 14R length 2936 ft width 75 ft
---- / hdg 144

(E) RW 18 length 3327 ft width 75 ft
---- / hdg 180

(F) RW 22 length 10000 ft width 100 ft
---- / hdg 216

(G) RW 27 length 3500 ft width 90 ft
---- / hdg 270

(H) RW 32L length 2936 ft width 75 ft
---- / hdg 324

(I) RW 32R length 13503 ft width 200 ft
ILS 109.50 / hdg 324

(J) RW 36 length 3327 ft width 75 ft
---- / hdg 360

Location; KMWH
Day. 18 / Time. 13.52 Zulu
* Altimeter: 30.13
* Temperature: 12° c. 53.6°f.
* Wind from: 030° Speed 03 kn.
Dewpoint: 09° c.
Visibility: 9 Statute Miles.
Clouds: Few 4500 ft.
Conditions: Smoke.

KMWH 181352Z 03003KT 9SM FU FEW045 12/09 A3013 RMK AO2 SLP197 T01170089


Wind From 030°
Speed 03 kn.

 
 
jpsmedia.com for Web Design worldairports.se 2018   terms of use